AMC-3 1 24936U 97050A 26156.46923512 -.00000232 00000+0 00000+0 0 9993 2 24936 8.1165 64.2198 0010464 111.2215 173.9176 1.00107765 52317 NSS-11 1 26554U 00059A 26160.49512080 .00000042 00000+0 00000+0 0 9994 2 26554 2.1057 81.4798 0003004 1.0468 169.5868 1.00272572 41219 AMC-6 1 26580U 00067A 26160.44308581 .00000105 00000+0 00000+0 0 9996 2 26580 0.1314 83.0277 0003610 4.8850 194.3761 1.00271530 93815 AMC-15 1 28446U 04041A 26160.46365535 -.00000072 00000+0 00000+0 0 9993 2 28446 0.0292 305.4977 0002275 137.7701 236.4447 1.00272011 79220 NSS-10 1 28526U 05003A 26160.29627882 -.00000236 00000+0 00000+0 0 9990 2 28526 6.4288 70.5485 0002920 8.7478 247.5917 1.00271162 53079 ASTRA 1KR 1 29055U 06012A 26160.48809890 .00000136 00000+0 00000+0 0 9999 2 29055 0.4529 83.2039 0003451 354.1390 15.2384 1.00272751 45621 ASTRA 1L 1 31306U 07016A 26160.40829302 -.00000167 00000+0 00000+0 0 9993 2 31306 1.3007 81.6413 0005365 6.6738 291.9658 1.00271294 44901 ASTRA 4A 1 32299U 07057A 26160.34280742 .00000049 00000+0 00000+0 0 9990 2 32299 0.0180 315.4326 0002312 124.2103 306.3003 1.00270053 51561 ASTRA 1M 1 33436U 08057A 26160.48818558 .00000137 00000+0 00000+0 0 9990 2 33436 0.2755 82.3379 0004715 19.0592 351.6101 1.00268673 45666 NSS-9 1 33749U 09008A 26160.52266999 .00000089 00000+0 00000+0 0 9991 2 33749 1.2409 82.7314 0002093 344.8441 201.5468 1.00271699 63449 SES-7 (PROTOSTAR 2) 1 34941U 09027A 26160.29188162 -.00000328 00000+0 00000+0 0 9993 2 34941 0.0649 79.9266 0000322 322.8658 68.2235 1.00271615 62559 NSS-12 1 36032U 09058A 26160.49571234 .00000089 00000+0 00000+0 0 9991 2 36032 0.0699 65.4858 0004836 342.3717 85.4655 1.00271024 60842 SES-1 1 36516U 10016A 26160.46149902 -.00000097 00000+0 00000+0 0 9994 2 36516 0.0135 326.9046 0002717 113.2392 242.8412 1.00271538 58957 ASTRA 3B 1 36581U 10021A 26160.48896558 .00000154 00000+0 00000+0 0 9993 2 36581 1.4507 83.6482 0004484 352.9737 20.7783 1.00274807 58794 SES-3 1 37748U 11035A 26160.46302147 -.00000085 00000+0 00000+0 0 9993 2 37748 1.3058 83.1712 0002613 350.7393 247.6074 1.00270775 54516 ASTRA 1N 1 37775U 11041A 26160.48827225 .00000137 00000+0 00000+0 0 9998 2 37775 0.0818 36.9615 0006235 56.5145 359.3802 1.00272432 44458 SES-2 1 37809U 11049A 26160.39589963 -.00000179 00000+0 00000+0 0 9995 2 37809 0.0457 118.4173 0002827 318.0502 236.8341 1.00271246 53882 QUETZSAT 1 1 37826U 11054A 26160.32660066 -.00000225 00000+0 00000+0 0 9999 2 37826 0.0491 71.9889 0002747 8.5688 217.7347 1.00271497 49790 SES-4 1 38087U 12007A 26160.31364441 -.00000151 00000+0 00000+0 0 9993 2 38087 0.0257 30.6898 0002547 56.8035 261.1049 1.00270088 52142 SES-5 1 38652U 12036A 26160.34280742 .00000051 00000+0 00000+0 0 9995 2 38652 0.0521 308.5687 0001915 132.4669 305.0823 1.00271308 44379 ASTRA 2F 1 38778U 12051A 26160.23308624 .00000167 00000+0 00000+0 0 9997 2 38778 0.0427 255.9186 0001099 279.9544 193.8456 1.00273649 41051 SES-6 1 39172U 13026A 26160.26251605 -.00000244 00000+0 00000+0 0 9995 2 39172 0.0202 325.5904 0002641 130.4883 215.5657 1.00269746 47643 O3B FM5 1 39188U 13031A 26159.44470532 -.00000010 00000+0 00000+0 0 9999 2 39188 0.0991 347.0116 0002985 77.5090 295.5124 5.00116554236606 O3B FM4 1 39189U 13031B 26160.16378451 -.00000009 00000+0 00000+0 0 9996 2 39189 0.0432 346.0601 0005083 83.2518 290.7448 5.00115222236647 O3B FM2 1 39190U 13031C 26160.42919610 -.00000009 00000+0 00000+0 0 9995 2 39190 0.0387 340.0891 0002759 95.3828 284.5611 5.00116006236721 O3B PFM 1 39191U 13031D 26160.24342495 -.00000009 00000+0 00000+0 0 9997 2 39191 0.0682 353.4768 0005323 80.5113 286.0728 5.00115962236270 ASTRA 2E 1 39285U 13056A 26160.13363762 .00000167 00000+0 00000+0 0 9990 2 39285 0.0660 323.6010 0002701 123.8507 246.6953 1.00274204 46333 SES-8 1 39460U 13071A 26160.50325236 -.00000252 00000+0 00000+0 0 9993 2 39460 0.0316 278.4438 0002815 167.2018 88.4086 1.00270194 44355 ASTRA 5B 1 39617U 14011B 26160.34636075 .00000154 00000+0 00000+0 0 9990 2 39617 0.0545 320.4335 0002036 105.7966 339.6794 1.00270342 44588 O3B FM3 1 40079U 14038A 26160.11020606 -.00000009 00000+0 00000+0 0 9995 2 40079 0.0485 353.9617 0002144 143.6782 222.3788 5.00115664212640 O3B FM7 1 40080U 14038B 26160.25620933 -.00000009 00000+0 00000+0 0 9991 2 40080 0.0482 345.2291 0003888 67.9516 306.8572 5.00115637217486 O3B FM6 1 40081U 14038C 26160.08330128 -.00000009 00000+0 00000+0 0 9997 2 40081 0.0479 350.6305 0002630 86.9749 282.4262 5.00115732217427 O3B FM8 1 40082U 14038D 26160.33645095 -.00000009 00000+0 00000+0 0 9998 2 40082 0.0478 349.4319 0002745 90.4181 280.1832 5.00116046217556 O3B FM10 1 40348U 14083A 26160.16377243 -.00000009 00000+0 00000+0 0 9991 2 40348 0.0398 329.3904 0002687 108.8540 281.7879 5.00115243209497 O3B FM11 1 40349U 14083B 26158.97708324 -.00000011 00000+0 00000+0 0 9999 2 40349 0.0559 355.3693 0002731 66.1211 298.5389 5.00115581209455 O3B FM12 1 40350U 14083C 26160.40333850 -.00000009 00000+0 00000+0 0 9997 2 40350 0.0550 355.1477 0002543 79.5673 285.3154 5.00115919209524 O3B FM9 1 40351U 14083D 26160.43016884 -.00000009 00000+0 00000+0 0 9996 2 40351 0.0569 354.4885 0002707 82.8339 282.7101 5.00115971209686 ASTRA 2G 1 40364U 14089A 26160.23308624 .00000166 00000+0 00000+0 0 9993 2 40364 0.0515 16.4677 0004900 44.4450 308.7963 1.00271323 41881 SES-9 1 41380U 16013A 26160.07805059 -.00000329 00000+0 00000+0 0 9999 2 41380 0.0108 336.9667 0001990 107.7708 309.1219 1.00273663 37357 SES-10 1 42432U 17017A 26160.39988632 -.00000256 00000+0 00000+0 0 9996 2 42432 0.0201 30.1121 0002817 55.8258 248.9028 1.00269318 33671 SES-15 1 42709U 17026A 26159.53201694 .00000076 00000+0 00000+0 0 9992 2 42709 0.0197 332.0701 0000516 88.0806 259.1449 1.00270105 7343 SES-11 (ECHOSTAR 105) 1 42967U 17063A 26160.46365492 -.00000072 00000+0 00000+0 0 9997 2 42967 0.0151 349.9177 0002687 100.2543 229.6300 1.00270812 31642 SES-14 1 43175U 18012B 26160.47501219 -.00000261 00000+0 00000+0 0 9994 2 43175 0.0220 31.0141 0001057 53.8990 296.4420 1.00270313 6946 O3B FM15 1 43231U 18024A 26160.29708021 -.00000009 00000+0 00000+0 0 9990 2 43231 0.0514 2.4466 0002623 74.1995 283.3854 5.00115756150633 O3B FM16 1 43232U 18024B 26160.34941630 -.00000009 00000+0 00000+0 0 9992 2 43232 0.0507 7.0361 0002638 69.8496 283.1460 5.00115917150555 O3B FM14 1 43233U 18024C 26160.19032618 -.00000009 00000+0 00000+0 0 9993 2 43233 0.0492 7.8457 0002890 70.4285 281.7604 5.00115711150553 O3B FM13 1 43234U 18024D 26160.25619411 -.00000009 00000+0 00000+0 0 9993 2 43234 0.0432 324.0559 0002882 62.8428 333.1184 5.00115774150666 SES-12 1 43488U 18049A 26160.50325236 -.00000252 00000+0 00000+0 0 9998 2 43488 0.0278 43.2072 0000900 243.5865 247.2566 1.00269254 29345 O3B FM20 1 44112U 19020A 26160.41627088 -.00000009 00000+0 00000+0 0 9993 2 44112 0.0523 358.8624 0002457 70.9678 290.1985 5.00115560131186 O3B FM19 1 44113U 19020B 26160.24341240 -.00000009 00000+0 00000+0 0 9998 2 44113 0.0645 338.5730 0003829 97.3907 284.0811 5.00116071131040 O3B FM17 1 44114U 19020C 26160.32356500 -.00000009 00000+0 00000+0 0 9993 2 44114 0.0333 5.7770 0002603 70.7171 283.5371 5.00115535131138 O3B FM18 1 44115U 19020D 26160.26989278 -.00000009 00000+0 00000+0 0 9991 2 44115 0.0526 358.7998 0002753 80.2861 280.9473 5.00115307131258 SES-17 1 49332U 21095A 26159.54432367 -.00000256 00000+0 00000+0 0 9997 2 49332 0.0256 35.0415 0001024 45.9352 304.8147 1.00269944 17762 SES-22 1 52933U 22071A 26160.47698100 .00000121 00000+0 00000+0 0 9996 2 52933 0.0226 290.6416 0001112 140.2181 219.7303 1.00274085 7441 SES-20 1 53960U 22123A 26160.34215403 -.00000084 00000+0 00000+0 0 9991 2 53960 0.0369 79.3383 0001932 15.8227 182.6353 1.00269457 13451 SES-21 1 53961U 22123B 26160.47349999 .00000086 00000+0 00000+0 0 9995 2 53961 0.0268 34.5519 0000883 42.4615 220.2829 1.00270189 7134 O3B MPOWER F1 1 54755U 22174A 26160.33812740 -.00000009 00000+0 00000+0 0 9993 2 54755 0.0533 342.5258 0006354 110.1498 250.1679 5.00114972 64964 O3B MPOWER F2 1 54756U 22174B 26160.31441190 -.00000009 00000+0 00000+0 0 9999 2 54756 0.0492 341.4673 0005902 93.2991 285.3011 5.00115125 65057 SES-18 1 55970U 23038A 26160.34215403 -.00000084 00000+0 00000+0 0 9990 2 55970 0.0317 279.7091 0000117 77.1035 280.9864 1.00269986 12029 SES-19 1 55971U 23038B 26160.47488847 .00000105 00000+0 00000+0 0 9992 2 55971 0.0186 308.7290 0001651 133.9764 211.2070 1.00271870 12012 O3B MPOWER F4 1 56367U 23059A 26160.17878902 -.00000009 00000+0 00000+0 0 9991 2 56367 0.0637 355.9901 0007604 89.7046 274.3945 5.00115624 58201 O3B MPOWER F3 1 56368U 23059B 26160.41188002 -.00000009 00000+0 00000+0 0 9994 2 56368 0.0646 355.4126 0006727 82.4588 282.2063 5.00116453 54343 O3B MPOWER F5 1 58346U 23175A 26140.72351744 -.00000023 00000+0 00000+0 0 9994 2 58346 0.0469 12.7092 0004726 60.9652 286.3772 5.00115437 48064 O3B MPOWER F6 1 58347U 23175B 26160.41341860 -.00000009 00000+0 00000+0 0 9995 2 58347 0.0523 4.0479 0004531 69.4672 286.5370 5.00115972 47967 ASTRA 1P (SES-24) 1 60086U 24115A 26160.13181762 .00000136 00000+0 00000+0 0 9995 2 60086 0.0552 6.4467 0000869 317.3959 0.3293 1.00270234 7116 O3B MPOWER F7 1 62362U 24244A 26160.27988800 -.00000009 00000+0 00000+0 0 9990 2 62362 0.0686 349.8742 0006029 85.7208 284.4742 5.00115201 26133 O3B MPOWER F8 1 62363U 24244B 26159.44725998 -.00000010 00000+0 00000+0 0 9997 2 62363 0.0183 325.9090 0006039 101.0816 293.0752 5.00115199 20435 O3B MPOWER F9 1 64866U 25153A 26158.38124323 -.00000012 00000+0 00000+0 0 9996 2 64866 0.0578 11.1971 0006247 87.4730 261.4023 5.00115852 19072 O3B MPOWER F10 1 64867U 25153B 26160.14624499 -.00000009 00000+0 00000+0 0 9999 2 64867 0.0561 6.7071 0001883 255.1955 98.0782 5.00114869 21638